| time (UTC) | temp F | wind direction | speed MPH | gust MPH | rain 1hr in | rain 24hr in | rain mn in | humidity % | barometer mb |
| 20260831222519 | 71 | 229 | 3.0 | 15.0 | 0.00 | 0.02 | 0.00 | 1 | 1016.1 |
| 20260831222017 | 71 | 291 | 7.0 | 15.0 | 0.00 | 0.02 | 0.00 | 1 | 1016.1 |
| 20260831221554 | 71 | 140 | 2.0 | 11.0 | 0.00 | 0.02 | 0.00 | 1 | 1016.1 |
| 20260831221017 | 71 | 157 | 3.0 | 14.0 | 0.00 | 0.02 | 0.00 | 1 | 1016.0 |
| 20260831220521 | 71 | 193 | 8.0 | 15.0 | 0.00 | 0.02 | 0.00 | 1 | 1016.1 |
| 20260831220053 | 72 | 196 | 9.0 | 13.0 | 0.00 | 0.02 | 0.00 | 1 | 1016.1 |
| 20260831215523 | 71 | 188 | 4.0 | 13.0 | 0.00 | 0.02 | 0.00 | 1 | 1016.0 |
| 20260831215019 | 71 | 250 | 6.0 | 13.0 | 0.00 | 0.02 | 0.00 | 1 | 1016.2 |
| 20260831214555 | 70 | 186 | 7.0 | 16.0 | 0.00 | 0.02 | 0.00 | 1 | 1016.1 |
| 20260831214023 | 71 | 198 | 8.0 | 16.0 | 0.00 | 0.02 | 0.00 | 1 | 1016.2 |
| 20260831213520 | 71 | 225 | 9.0 | 15.0 | 0.00 | 0.02 | 0.00 | 1 | 1016.2 |
| 20260831213050 | 70 | 192 | 9.0 | 15.0 | 0.00 | 0.02 | 0.00 | 1 | 1016.2 |
| 20260831212519 | 70 | 196 | 6.0 | 18.0 | 0.00 | 0.02 | 0.00 | 1 | 1016.3 |
| 20260831212020 | 70 | 265 | 7.0 | 14.0 | 0.00 | 0.02 | 0.00 | 1 | 1016.2 |
| 20260831211605 | 70 | 171 | 3.0 | 11.0 | 0.00 | 0.02 | 0.00 | 1 | 1016.2 |
| 20260831211019 | 70 | 314 | 6.0 | 15.0 | 0.00 | 0.02 | 0.00 | 1 | 1016.1 |
| 20260831210520 | 69 | 186 | 8.0 | 15.0 | 0.00 | 0.02 | 0.00 | 1 | 1016.2 |
| 20260831210045 | 70 | 198 | 10.0 | 14.0 | 0.00 | 0.02 | 0.00 | 1 | 1016.2 |
| 20260831205517 | 69 | 240 | 3.0 | 16.0 | 0.00 | 0.02 | 0.00 | 1 | 1016.2 |
| 20260831205019 | 69 | 232 | 10.0 | 16.0 | 0.00 | 0.02 | 0.00 | 1 | 1016.2 |
| 20260831204553 | 69 | 275 | 11.0 | 15.0 | 0.00 | 0.02 | 0.00 | 1 | 1016.4 |
| 20260831204019 | 69 | 228 | 8.0 | 14.0 | 0.00 | 0.02 | 0.00 | 1 | 1016.3 |
| 20260831203519 | 69 | 191 | 9.0 | 14.0 | 0.00 | 0.02 | 0.00 | 1 | 1016.2 |
| 20260831203049 | 69 | 210 | 7.0 | 13.0 | 0.00 | 0.02 | 0.00 | 1 | 1016.4 |
| 20260831202517 | 68 | 217 | 5.0 | 18.0 | 0.00 | 0.02 | 0.00 | 1 | 1016.5 |
| 20260831202019 | 69 | 261 | 7.0 | 18.0 | 0.00 | 0.02 | 0.00 | 1 | 1016.5 |
| 20260831201553 | 68 | 247 | 9.0 | 16.0 | 0.00 | 0.02 | 0.00 | 1 | 1016.6 |
| 20260831201021 | 68 | 298 | 9.0 | 17.0 | 0.00 | 0.02 | 0.00 | 1 | 1016.6 |
| 20260831200519 | 68 | 279 | 11.0 | 20.0 | 0.00 | 0.02 | 0.00 | 1 | 1016.7 |
| 20260831200051 | 69 | 256 | 14.0 | 20.0 | 0.00 | 0.02 | 0.00 | 1 | 1016.8 |
| 20260831195521 | 68 | 277 | 9.0 | 16.0 | 0.00 | 0.02 | 0.00 | 1 | 1016.5 |
| 20260831195016 | 67 | 257 | 6.0 | 18.0 | 0.00 | 0.02 | 0.00 | 1 | 1016.6 |
| 20260831194557 | 67 | 265 | 11.0 | 18.0 | 0.00 | 0.02 | 0.00 | 1 | 1016.8 |
| 20260831194024 | 68 | 261 | 8.0 | 18.0 | 0.00 | 0.02 | 0.00 | 1 | 1016.6 |
| 20260831193519 | 67 | 240 | 10.0 | 18.0 | 0.00 | 0.02 | 0.00 | 1 | 1016.8 |
| 20260831193100 | 67 | 248 | 8.0 | 17.0 | 0.00 | 0.02 | 0.00 | 1 | 1016.8 |
| 20260831192519 | 67 | 246 | 9.0 | 17.0 | 0.00 | 0.02 | 0.00 | 1 | 1016.7 |
| 20260831192022 | 67 | 204 | 9.0 | 16.0 | 0.00 | 0.02 | 0.00 | 1 | 1016.7 |
| 20260831191553 | 67 | 232 | 7.0 | 14.0 | 0.00 | 0.02 | 0.00 | 1 | 1016.9 |
| 20260831191018 | 66 | 269 | 6.0 | 16.0 | 0.00 | 0.02 | 0.00 | 1 | 1016.9 |
| 20260831190516 | 67 | 236 | 11.0 | 16.0 | 0.00 | 0.02 | 0.00 | 1 | 1017.0 |
| 20260831190053 | 67 | 310 | 6.0 | 18.0 | 0.00 | 0.02 | 0.00 | 1 | 1017.0 |
| 20260831185519 | 67 | 261 | 9.0 | 16.0 | 0.00 | 0.02 | 0.00 | 1 | 1017.0 |
| 20260831185021 | 66 | 227 | 8.0 | 17.0 | 0.00 | 0.02 | 0.00 | 1 | 1017.1 |
| 20260831184549 | 66 | 220 | 10.0 | 17.0 | 0.00 | 0.02 | 0.00 | 1 | 1017.2 |
| 20260831184020 | 66 | 299 | 5.0 | 13.0 | 0.00 | 0.02 | 0.00 | 1 | 1017.4 |
| 20260831183520 | 66 | 232 | 8.0 | 14.0 | 0.00 | 0.02 | 0.00 | 1 | 1017.4 |
| 20260831183059 | 66 | 284 | 9.0 | 17.0 | 0.00 | 0.02 | 0.00 | 1 | 1017.4 |
| 20260831182518 | 65 | 294 | 10.0 | 18.0 | 0.00 | 0.02 | 0.00 | 1 | 1017.3 |
| 20260831182023 | 65 | 329 | 11.0 | 18.0 | 0.00 | 0.02 | 0.00 | 1 | 1017.2 |
| 20260831181556 | 65 | 309 | 9.0 | 17.0 | 0.00 | 0.02 | 0.00 | 1 | 1017.2 |
| 20260831181022 | 65 | 338 | 13.0 | 20.0 | 0.00 | 0.02 | 0.00 | 1 | 1017.3 |
| 20260831180522 | 65 | 311 | 12.0 | 20.0 | 0.00 | 0.02 | 0.00 | 1 | 1017.2 |
| 20260831175519 | 65 | 325 | 10.0 | 16.0 | 0.00 | 0.02 | 0.00 | 1 | 1017.1 |
| 20260831175019 | 65 | 325 | 10.0 | 16.0 | 0.00 | 0.02 | 0.00 | 1 | 1017.1 |
| 20260831174601 | 64 | 323 | 11.0 | 17.0 | 0.00 | 0.02 | 0.00 | 1 | 1017.2 |
| 20260831174020 | 64 | 292 | 10.0 | 20.0 | 0.00 | 0.02 | 0.00 | 1 | 1017.3 |
| 20260831173518 | 64 | 318 | 12.0 | 20.0 | 0.00 | 0.02 | 0.00 | 1 | 1017.3 |
| 20260831173055 | 64 | 298 | 12.0 | 20.0 | 0.00 | 0.02 | 0.00 | 1 | 1017.2 |
| 20260831172524 | 64 | 317 | 13.0 | 19.0 | 0.00 | 0.02 | 0.00 | 1 | 1016.8 |
| 20260831172021 | 64 | 313 | 14.0 | 19.0 | 0.00 | 0.02 | 0.00 | 1 | 1017.1 |
| 20260831171603 | 63 | 292 | 12.0 | 20.0 | 0.00 | 0.02 | 0.00 | 1 | 1017.1 |
| 20260831171017 | 63 | 313 | 11.0 | 20.0 | 0.00 | 0.02 | 0.00 | 1 | 1017.0 |
| 20260831170523 | 63 | 318 | 11.0 | 20.0 | 0.00 | 0.02 | 0.00 | 1 | 1017.1 |
| 20260831170128 | 63 | 313 | 12.0 | 21.0 | 0.00 | 0.02 | 0.00 | 1 | 1017.1 |
| 20260831165523 | 63 | 287 | 12.0 | 20.0 | 0.00 | 0.02 | 0.00 | 1 | 1017.4 |
| 20260831165023 | 63 | 306 | 13.0 | 20.0 | 0.00 | 0.02 | 0.00 | 1 | 1017.1 |
| 20260831164604 | 63 | 276 | 12.0 | 20.0 | 0.00 | 0.02 | 0.00 | 1 | 1017.2 |
| 20260831164019 | 62 | 281 | 12.0 | 22.0 | 0.00 | 0.02 | 0.00 | 1 | 1017.2 |
| 20260831163518 | 62 | 311 | 13.0 | 20.0 | 0.00 | 0.02 | 0.00 | 1 | 1017.0 |
| 20260831163101 | 62 | 298 | 14.0 | 21.0 | 0.00 | 0.02 | 0.00 | 1 | 1016.8 |
| 20260831162525 | 62 | 316 | 12.0 | 22.0 | 0.00 | 0.02 | 0.00 | 1 | 1016.8 |
| 20260831162020 | 61 | 297 | 14.0 | 22.0 | 0.00 | 0.02 | 0.00 | 1 | 1016.6 |
| 20260831161616 | 61 | 310 | 15.0 | 22.0 | 0.00 | 0.02 | 0.00 | 1 | 1016.6 |
| 20260831161020 | 61 | 309 | 16.0 | 22.0 | 0.00 | 0.02 | 0.00 | 1 | 1016.5 |
| 20260831160517 | 61 | 260 | 15.0 | 22.0 | 0.00 | 0.02 | 0.00 | 1 | 1016.3 |
| 20260831160108 | 61 | 276 | 15.0 | 24.0 | 0.00 | 0.02 | 0.00 | 1 | 1016.6 |
| 20260831155524 | 61 | 299 | 18.0 | 24.0 | 0.00 | 0.02 | 0.00 | 1 | 1016.4 |
| 20260831155028 | 61 | 314 | 15.0 | 23.0 | 0.00 | 0.02 | 0.00 | 1 | 1016.4 |
| 20260831154650 | 61 | 286 | 16.0 | 24.0 | 0.00 | 0.02 | 0.00 | 1 | 1016.3 |
| 20260831154025 | 60 | 281 | 16.0 | 27.0 | 0.00 | 0.02 | 0.00 | 1 | 1016.5 |
| 20260831153520 | 60 | 317 | 18.0 | 27.0 | 0.00 | 0.02 | 0.00 | 1 | 1016.2 |
| 20260831153123 | 60 | 324 | 17.0 | 23.0 | 0.00 | 0.02 | 0.00 | 1 | 1016.3 |
| 20260831152520 | 60 | 300 | 15.0 | 23.0 | 0.00 | 0.02 | 0.00 | 1 | 1016.2 |
| 20260831152021 | 60 | 333 | 14.0 | 26.0 | 0.00 | 0.02 | 0.00 | 1 | 1016.3 |
| 20260831151619 | 59 | 302 | 18.0 | 26.0 | 0.00 | 0.02 | 0.00 | 1 | 1016.2 |
| 20260831151025 | 60 | 313 | 15.0 | 24.0 | 0.00 | 0.02 | 0.00 | 1 | 1015.9 |
| 20260831150525 | 59 | 321 | 16.0 | 24.0 | 0.00 | 0.02 | 0.00 | 1 | 1015.9 |
| 20260831150116 | 60 | 317 | 15.0 | 23.0 | 0.00 | 0.02 | 0.00 | 1 | 1015.8 |
| 20260831145520 | 59 | 325 | 16.0 | 23.0 | 0.00 | 0.02 | 0.00 | 1 | 1016.2 |
| 20260831145022 | 59 | 308 | 16.0 | 26.0 | 0.00 | 0.02 | 0.00 | 1 | 1016.1 |
| 20260831144624 | 59 | 306 | 17.0 | 26.0 | 0.00 | 0.02 | 0.00 | 1 | 1016.2 |
| 20260831144028 | 59 | 330 | 15.0 | 23.0 | 0.00 | 0.02 | 0.00 | 1 | 1015.7 |
| 20260831143521 | 59 | 308 | 14.0 | 23.0 | 0.00 | 0.02 | 0.00 | 1 | 1016.0 |
| 20260831143132 | 58 | 300 | 17.0 | 23.0 | 0.00 | 0.02 | 0.00 | 1 | 1015.3 |
| 20260831142525 | 57 | 319 | 11.0 | 18.0 | 0.00 | 0.02 | 0.00 | 1 | 1015.6 |
| 20260831142020 | 57 | 277 | 11.0 | 17.0 | 0.00 | 0.02 | 0.00 | 1 | 1015.7 |
| 20260831141627 | 56 | 268 | 13.0 | 18.0 | 0.00 | 0.02 | 0.00 | 1 | 1015.7 |
| 20260831141017 | 56 | 294 | 14.0 | 18.0 | 0.00 | 0.02 | 0.00 | 1 | 1015.5 |
| 20260831140524 | 55 | 265 | 13.0 | 19.0 | 0.00 | 0.02 | 0.00 | 1 | 1015.6 |
| 20260831140124 | 55 | 283 | 13.0 | 19.0 | 0.00 | 0.02 | 0.00 | 1 | 1015.5 |
| 20260831135524 | 54 | 284 | 14.0 | 19.0 | 0.00 | 0.02 | 0.00 | 1 | 1015.5 |
| 20260831135023 | 54 | 277 | 13.0 | 19.0 | 0.00 | 0.02 | 0.00 | 1 | 1015.4 |
| 20260831134625 | 54 | 290 | 13.0 | 21.0 | 0.00 | 0.02 | 0.00 | 1 | 1015.3 |
| 20260831134021 | 53 | 291 | 14.0 | 21.0 | 0.00 | 0.02 | 0.00 | 1 | 1015.1 |
| 20260831133519 | 53 | 284 | 14.0 | 20.0 | 0.00 | 0.02 | 0.00 | 1 | 1015.1 |
| 20260831133120 | 53 | 279 | 15.0 | 20.0 | 0.00 | 0.02 | 0.00 | 1 | 1015.1 |
| 20260831132525 | 53 | 274 | 13.0 | 19.0 | 0.00 | 0.02 | 0.00 | 1 | 1015.0 |
| 20260831132025 | 52 | 290 | 13.0 | 19.0 | 0.00 | 0.02 | 0.00 | 1 | 1015.2 |
| 20260831131625 | 52 | 279 | 14.0 | 20.0 | 0.00 | 0.02 | 0.00 | 1 | 1015.2 |
| 20260831131023 | 52 | 273 | 15.0 | 20.0 | 0.00 | 0.02 | 0.00 | 1 | 1015.0 |
| 20260831130523 | 52 | 279 | 14.0 | 19.0 | 0.00 | 0.02 | 0.00 | 1 | 1014.8 |
| 20260831130138 | 52 | 271 | 15.0 | 20.0 | 0.00 | 0.02 | 0.00 | 1 | 1014.9 |
| 20260831125522 | 52 | 279 | 15.0 | 21.0 | 0.00 | 0.02 | 0.00 | 1 | 1014.6 |
| 20260831125021 | 52 | 275 | 15.0 | 23.0 | 0.00 | 0.02 | 0.00 | 1 | 1014.5 |
| 20260831124627 | 53 | 265 | 15.0 | 23.0 | 0.00 | 0.02 | 0.00 | 1 | 1014.5 |
| 20260831124023 | 53 | 301 | 14.0 | 22.0 | 0.00 | 0.02 | 0.00 | 1 | 1014.1 |
| 20260831123523 | 53 | 284 | 16.0 | 26.0 | 0.00 | 0.02 | 0.00 | 1 | 1014.6 |
| 20260831123124 | 53 | 291 | 17.0 | 26.0 | 0.00 | 0.02 | 0.00 | 1 | 1014.4 |
| 20260831122528 | 52 | 265 | 19.0 | 26.0 | 0.00 | 0.02 | 0.00 | 1 | 1014.2 |
| 20260831122024 | 52 | 270 | 18.0 | 25.0 | 0.00 | 0.02 | 0.00 | 1 | 1014.3 |
| 20260831121628 | 52 | 296 | 19.0 | 25.0 | 0.00 | 0.02 | 0.00 | 1 | 1014.2 |
| 20260831121027 | 51 | 272 | 18.0 | 25.0 | 0.00 | 0.02 | 0.00 | 1 | 1014.1 |
| 20260831120525 | 51 | 283 | 17.0 | 28.0 | 0.00 | 0.02 | 0.00 | 1 | 1014.2 |
| 20260831120128 | 52 | 261 | 18.0 | 28.0 | 0.00 | 0.02 | 0.00 | 1 | 1014.1 |
| 20260831115528 | 52 | 268 | 19.0 | 27.0 | 0.00 | 0.02 | 0.00 | 1 | 1014.0 |
| 20260831115024 | 52 | 253 | 19.0 | 27.0 | 0.00 | 0.02 | 0.00 | 1 | 1014.0 |
| 20260831114625 | 52 | 288 | 17.0 | 24.0 | 0.00 | 0.02 | 0.00 | 1 | 1014.1 |
| 20260831114025 | 51 | 265 | 17.0 | 24.0 | 0.00 | 0.02 | 0.00 | 1 | 1014.2 |
| 20260831113523 | 50 | 275 | 16.0 | 21.0 | 0.00 | 0.02 | 0.00 | 1 | 1014.5 |
| 20260831113127 | 49 | 277 | 16.0 | 21.0 | 0.00 | 0.02 | 0.00 | 1 | 1014.6 |
| 20260831112523 | 49 | 259 | 14.0 | 20.0 | 0.00 | 0.02 | 0.00 | 1 | 1014.6 |
| 20260831112024 | 48 | 267 | 14.0 | 18.0 | 0.00 | 0.02 | 0.00 | 1 | 1014.6 |
| 20260831111625 | 48 | 278 | 13.0 | 18.0 | 0.00 | 0.02 | 0.00 | 1 | 1014.6 |
| 20260831111028 | 48 | 275 | 13.0 | 17.0 | 0.00 | 0.02 | 0.00 | 1 | 1014.6 |
| 20260831110523 | 48 | 295 | 11.0 | 16.0 | 0.00 | 0.02 | 0.00 | 1 | 1014.7 |
| 20260831110130 | 48 | 288 | 12.0 | 16.0 | 0.00 | 0.02 | 0.00 | 1 | 1014.6 |
| 20260831105521 | 47 | 262 | 11.0 | 16.0 | 0.00 | 0.02 | 0.00 | 1 | 1014.6 |
| 20260831105025 | 46 | 279 | 11.0 | 14.0 | 0.00 | 0.02 | 0.00 | 1 | 1014.6 |
| 20260831104626 | 45 | 290 | 10.0 | 13.0 | 0.00 | 0.02 | 0.00 | 1 | 1014.4 |
| 20260831104025 | 45 | 288 | 10.0 | 12.0 | 0.00 | 0.02 | 0.00 | 1 | 1014.5 |
| 20260831103520 | 45 | 264 | 10.0 | 12.0 | 0.00 | 0.02 | 0.00 | 1 | 1014.6 |
| 20260831103125 | 44 | 266 | 9.0 | 12.0 | 0.00 | 0.02 | 0.00 | 1 | 1014.7 |
| 20260831102518 | 45 | 267 | 9.0 | 12.0 | 0.00 | 0.02 | 0.00 | 1 | 1014.5 |
| 20260831102025 | 45 | 273 | 9.0 | 11.0 | 0.00 | 0.02 | 0.00 | 1 | 1014.4 |
| 20260831101626 | 45 | 276 | 8.0 | 12.0 | 0.00 | 0.02 | 0.00 | 1 | 1014.3 |
| 20260831101024 | 45 | 286 | 9.0 | 12.0 | 0.00 | 0.02 | 0.00 | 1 | 1014.3 |
| 20260831100519 | 45 | 258 | 10.0 | 13.0 | 0.00 | 0.02 | 0.00 | 1 | 1014.2 |
| 20260831100126 | 45 | 246 | 9.0 | 13.0 | 0.00 | 0.02 | 0.00 | 1 | 1014.1 |
| 20260831095521 | 45 | 250 | 9.0 | 12.0 | 0.00 | 0.02 | 0.00 | 1 | 1014.1 |
| 20260831095024 | 44 | 257 | 10.0 | 12.0 | 0.00 | 0.02 | 0.00 | 1 | 1014.0 |
| 20260831094638 | 44 | 236 | 9.0 | 12.0 | 0.00 | 0.02 | 0.00 | 1 | 1013.8 |
| 20260831094021 | 44 | 225 | 9.0 | 11.0 | 0.00 | 0.02 | 0.00 | 1 | 1013.8 |
| 20260831093525 | 44 | 236 | 8.0 | 10.0 | 0.00 | 0.02 | 0.00 | 1 | 1013.8 |
| 20260831093126 | 45 | 224 | 7.0 | 12.0 | 0.00 | 0.02 | 0.00 | 1 | 1013.9 |
| 20260831092527 | 46 | 244 | 10.0 | 12.0 | 0.00 | 0.02 | 0.00 | 1 | 1013.9 |
| 20260831092027 | 45 | 241 | 8.0 | 10.0 | 0.00 | 0.02 | 0.00 | 1 | 1013.9 |
| 20260831091628 | 44 | 254 | 6.0 | 8.0 | 0.00 | 0.02 | 0.00 | 1 | 1013.9 |
| 20260831091024 | 45 | 259 | 4.0 | 7.0 | 0.00 | 0.02 | 0.00 | 1 | 1013.7 |
| 20260831090524 | 46 | 269 | 2.0 | 4.0 | 0.00 | 0.02 | 0.00 | 1 | 1013.8 |
| 20260831090130 | 45 | 321 | 1.0 | 4.0 | 0.00 | 0.02 | 0.00 | 1 | 1013.8 |
| 20260831085518 | 45 | 321 | 2.0 | 4.0 | 0.00 | 0.03 | 0.00 | 1 | 1013.8 |
| 20260831085019 | 46 | 321 | 2.0 | 10.0 | 0.00 | 0.03 | 0.00 | 1 | 1013.8 |
| 20260831084531 | 47 | 321 | 2.0 | 10.0 | 0.00 | 0.03 | 0.00 | 1 | 1013.7 |
| 20260831084017 | 47 | 333 | 0.0 | 3.0 | 0.00 | 0.03 | 0.00 | 1 | 1013.8 |
| 20260831083516 | 46 | 333 | 0.0 | 2.0 | 0.00 | 0.03 | 0.00 | 1 | 1013.8 |
| 20260831083038 | 46 | 333 | 0.0 | 3.0 | 0.00 | 0.03 | 0.00 | 1 | 1013.8 |
| 20260831082521 | 46 | 333 | 1.0 | 3.0 | 0.00 | 0.03 | 0.00 | 1 | 1013.7 |
| 20260831082016 | 47 | 333 | 1.0 | 3.0 | 0.00 | 0.03 | 0.00 | 1 | 1013.5 |
| 20260831081538 | 47 | 258 | 1.0 | 6.0 | 0.00 | 0.03 | 0.00 | 1 | 1013.4 |
| 20260831081015 | 46 | 258 | 3.0 | 6.0 | 0.00 | 0.03 | 0.00 | 1 | 1013.5 |
| 20260831080517 | 47 | 258 | 3.0 | 6.0 | 0.00 | 0.03 | 0.00 | 1 | 1013.3 |
| 20260831080037 | 48 | 258 | 3.0 | 8.0 | 0.00 | 0.03 | 0.00 | 1 | 1013.4 |
| 20260831075517 | 48 | 246 | 4.0 | 10.0 | 0.00 | 0.03 | 0.00 | 1 | 1013.3 |
| 20260831075019 | 49 | 262 | 8.0 | 12.0 | 0.00 | 0.03 | 0.00 | 1 | 1013.3 |
| 20260831074534 | 49 | 237 | 7.0 | 12.0 | 0.00 | 0.03 | 0.00 | 1 | 1013.3 |
| 20260831074019 | 48 | 217 | 7.0 | 12.0 | 0.00 | 0.03 | 0.00 | 1 | 1013.3 |
| 20260831073521 | 48 | 198 | 8.0 | 12.0 | 0.00 | 0.03 | 0.00 | 1 | 1013.4 |
| 20260831073035 | 47 | 164 | 6.0 | 12.0 | 0.00 | 0.03 | 0.00 | 1 | 1013.5 |
| 20260831072517 | 47 | 164 | 8.0 | 14.0 | 0.00 | 0.03 | 0.00 | 1 | 1013.6 |
| 20260831072016 | 45 | 174 | 5.0 | 8.0 | 0.00 | 0.03 | 0.00 | 1 | 1013.6 |
| 20260831071547 | 45 | 221 | 3.0 | 6.0 | 0.00 | 0.03 | 0.00 | 1 | 1013.4 |
| 20260831071015 | 45 | 221 | 2.0 | 4.0 | 0.00 | 0.03 | 0.00 | 1 | 1013.3 |
| 20260831070518 | 46 | 221 | 2.0 | 5.0 | 0.00 | 0.03 | 0.00 | 1 | 1013.3 |
| 20260831070035 | 47 | 221 | 3.0 | 7.0 | 0.00 | 0.03 | 0.00 | 1 | 1013.3 |
| 20260831065519 | 48 | 221 | 4.0 | 11.0 | 0.00 | 0.03 | 0.00 | 1 | 1013.3 |
| 20260831065021 | 48 | 240 | 6.0 | 12.0 | 0.00 | 0.03 | 0.00 | 1 | 1013.2 |
| 20260831064535 | 48 | 257 | 8.0 | 14.0 | 0.00 | 0.03 | 0.00 | 1 | 1013.0 |
| 20260831064019 | 49 | 270 | 9.0 | 16.0 | 0.00 | 0.03 | 0.00 | 1 | 1012.9 |
| 20260831063517 | 49 | 288 | 10.0 | 18.0 | 0.00 | 0.03 | 0.00 | 1 | 1012.7 |
| 20260831063037 | 49 | 288 | 11.0 | 19.0 | 0.00 | 0.03 | 0.00 | 1 | 1012.6 |
| 20260831062520 | 49 | 261 | 15.0 | 23.0 | 0.00 | 0.03 | 0.00 | 1 | 1012.5 |
| 20260831062018 | 49 | 246 | 15.0 | 24.0 | 0.00 | 0.03 | 0.00 | 1 | 1012.6 |
| 20260831061534 | 49 | 265 | 16.0 | 24.0 | 0.00 | 0.03 | 0.00 | 1 | 1012.6 |
| 20260831061020 | 49 | 262 | 16.0 | 23.0 | 0.00 | 0.03 | 0.00 | 1 | 1012.7 |
| 20260831060518 | 49 | 266 | 17.0 | 23.0 | 0.00 | 0.03 | 0.00 | 1 | 1012.6 |
| 20260831060041 | 49 | 258 | 16.0 | 20.0 | 0.00 | 0.03 | 0.00 | 1 | 1012.7 |
| 20260831055525 | 49 | 252 | 16.0 | 20.0 | 0.00 | 0.03 | 0.03 | 1 | 1012.8 |
| 20260831055019 | 49 | 254 | 15.0 | 19.0 | 0.00 | 0.03 | 0.03 | 1 | 1013.0 |
| 20260831054535 | 48 | 257 | 14.0 | 18.0 | 0.00 | 0.03 | 0.03 | 1 | 1013.0 |
| 20260831054018 | 48 | 267 | 13.0 | 18.0 | 0.00 | 0.03 | 0.03 | 1 | 1013.1 |
| 20260831053520 | 48 | 271 | 11.0 | 17.0 | 0.00 | 0.03 | 0.03 | 1 | 1013.1 |
| 20260831053048 | 49 | 268 | 14.0 | 18.0 | 0.00 | 0.03 | 0.03 | 1 | 1013.1 |
| 20260831052518 | 49 | 235 | 14.0 | 18.0 | 0.00 | 0.03 | 0.03 | 1 | 1013.0 |
| 20260831052018 | 48 | 249 | 14.0 | 18.0 | 0.00 | 0.03 | 0.03 | 1 | 1012.9 |
| 20260831051539 | 48 | 242 | 13.0 | 17.0 | 0.00 | 0.03 | 0.03 | 1 | 1012.9 |
| 20260831051016 | 48 | 240 | 12.0 | 17.0 | 0.00 | 0.03 | 0.03 | 1 | 1013.0 |
| 20260831050518 | 48 | 240 | 12.0 | 16.0 | 0.00 | 0.03 | 0.03 | 1 | 1012.8 |
| 20260831050041 | 49 | 246 | 13.0 | 19.0 | 0.00 | 0.03 | 0.03 | 1 | 1012.7 |
| 20260831045518 | 49 | 258 | 14.0 | 21.0 | 0.00 | 0.04 | 0.03 | 1 | 1012.6 |
| 20260831045016 | 49 | 258 | 17.0 | 21.0 | 0.00 | 0.04 | 0.03 | 1 | 1012.5 |
| 20260831044536 | 49 | 258 | 15.0 | 19.0 | 0.00 | 0.04 | 0.03 | 1 | 1012.6 |
| 20260831044019 | 49 | 252 | 13.0 | 21.0 | 0.00 | 0.04 | 0.03 | 1 | 1012.4 |
| 20260831043518 | 49 | 259 | 14.0 | 21.0 | 0.00 | 0.04 | 0.03 | 1 | 1012.5 |
| 20260831043043 | 49 | 250 | 15.0 | 19.0 | 0.00 | 0.04 | 0.03 | 1 | 1012.5 |
| 20260831042518 | 49 | 257 | 15.0 | 21.0 | 0.00 | 0.04 | 0.03 | 1 | 1012.3 |
| 20260831042018 | 50 | 252 | 16.0 | 23.0 | 0.00 | 0.04 | 0.03 | 1 | 1012.4 |
| 20260831041541 | 50 | 257 | 17.0 | 24.0 | 0.00 | 0.04 | 0.03 | 1 | 1012.1 |
| 20260831041021 | 50 | 253 | 17.0 | 24.0 | 0.00 | 0.04 | 0.03 | 1 | 1012.1 |
| 20260831040518 | 50 | 259 | 19.0 | 24.0 | 0.00 | 0.04 | 0.03 | 1 | 1012.1 |
| 20260831040042 | 51 | 256 | 16.0 | 24.0 | 0.00 | 0.04 | 0.03 | 1 | 1012.1 |
| 20260831035517 | 51 | 261 | 17.0 | 25.0 | 0.00 | 0.04 | 0.03 | 1 | 1012.2 |
| 20260831035019 | 51 | 259 | 17.0 | 29.0 | 0.00 | 0.04 | 0.03 | 1 | 1012.2 |
| 20260831034540 | 52 | 291 | 19.0 | 29.0 | 0.00 | 0.04 | 0.03 | 1 | 1012.2 |
| 20260831034019 | 52 | 266 | 15.0 | 26.0 | 0.00 | 0.04 | 0.03 | 1 | 1012.4 |
| 20260831033516 | 52 | 280 | 16.0 | 25.0 | 0.00 | 0.04 | 0.03 | 1 | 1012.7 |
| 20260831033050 | 52 | 271 | 14.0 | 21.0 | 0.00 | 0.04 | 0.03 | 1 | 1012.7 |
| 20260831032518 | 51 | 261 | 14.0 | 21.0 | 0.00 | 0.04 | 0.03 | 1 | 1012.6 |
| 20260831032020 | 51 | 281 | 13.0 | 19.0 | 0.00 | 0.04 | 0.03 | 1 | 1012.7 |
| 20260831031543 | 51 | 264 | 10.0 | 14.0 | 0.00 | 0.04 | 0.03 | 1 | 1012.7 |
| 20260831031020 | 51 | 292 | 9.0 | 12.0 | 0.00 | 0.04 | 0.03 | 1 | 1012.6 |
| 20260831030517 | 51 | 277 | 9.0 | 12.0 | 0.00 | 0.04 | 0.03 | 1 | 1012.4 |
| 20260831030041 | 51 | 265 | 8.0 | 10.0 | 0.00 | 0.04 | 0.03 | 1 | 1012.4 |
| 20260831025517 | 52 | 264 | 8.0 | 12.0 | 0.00 | 0.04 | 0.03 | 1 | 1012.4 |
| 20260831025017 | 52 | 264 | 8.0 | 14.0 | 0.00 | 0.04 | 0.03 | 1 | 1012.3 |
| 20260831024551 | 52 | 269 | 10.0 | 15.0 | 0.00 | 0.04 | 0.03 | 1 | 1012.2 |
| 20260831024021 | 52 | 271 | 11.0 | 16.0 | 0.00 | 0.04 | 0.03 | 1 | 1012.1 |
| 20260831023519 | 52 | 265 | 13.0 | 20.0 | 0.00 | 0.04 | 0.03 | 1 | 1012.0 |
| 20260831023044 | 52 | 287 | 14.0 | 20.0 | 0.00 | 0.04 | 0.03 | 1 | 1012.1 |
| 20260831022516 | 52 | 267 | 13.0 | 21.0 | 0.00 | 0.04 | 0.03 | 1 | 1012.0 |
| 20260831022016 | 52 | 281 | 14.0 | 20.0 | 0.00 | 0.04 | 0.03 | 1 | 1012.0 |
| 20260831021542 | 52 | 280 | 13.0 | 17.0 | 0.00 | 0.04 | 0.03 | 1 | 1011.8 |
| 20260831021018 | 52 | 275 | 11.0 | 16.0 | 0.00 | 0.04 | 0.03 | 1 | 1011.8 |
| 20260831020520 | 52 | 281 | 10.0 | 17.0 | 0.00 | 0.04 | 0.03 | 1 | 1011.8 |
| 20260831020110 | 53 | 294 | 13.0 | 17.0 | 0.00 | 0.04 | 0.03 | 1 | 1011.8 |
| 20260831015517 | 53 | 264 | 12.0 | 16.0 | 0.00 | 0.04 | 0.03 | 1 | 1011.7 |
| 20260831015017 | 53 | 273 | 11.0 | 15.0 | 0.00 | 0.04 | 0.03 | 1 | 1011.7 |
| 20260831014546 | 53 | 278 | 9.0 | 14.0 | 0.00 | 0.04 | 0.03 | 1 | 1011.4 |
| 20260831014019 | 53 | 290 | 9.0 | 16.0 | 0.00 | 0.04 | 0.03 | 1 | 1011.5 |
| 20260831013519 | 53 | 280 | 11.0 | 16.0 | 0.01 | 0.04 | 0.03 | 1 | 1011.5 |
| 20260831013042 | 53 | 279 | 12.0 | 17.0 | 0.01 | 0.04 | 0.03 | 1 | 1011.4 |
| 20260831012519 | 53 | 290 | 13.0 | 34.0 | 0.01 | 0.04 | 0.03 | 1 | 1011.4 |
| 20260831012015 | 55 | 292 | 24.0 | 34.0 | 0.01 | 0.04 | 0.03 | 1 | 1011.4 |
| 20260831011558 | 53 | 254 | 13.0 | 17.0 | 0.01 | 0.04 | 0.03 | 1 | 1011.4 |
| 20260831011018 | 53 | 251 | 8.0 | 11.0 | 0.01 | 0.04 | 0.03 | 1 | 1011.4 |
| 20260831010518 | 53 | 236 | 7.0 | 10.0 | 0.01 | 0.04 | 0.03 | 1 | 1011.4 |
| 20260831010046 | 52 | 243 | 6.0 | 11.0 | 0.01 | 0.04 | 0.03 | 1 | 1011.3 |
| 20260831005519 | 52 | 238 | 8.0 | 12.0 | 0.01 | 0.09 | 0.03 | 1 | 1011.5 |
| 20260831005016 | 52 | 254 | 9.0 | 14.0 | 0.01 | 0.09 | 0.03 | 1 | 1011.6 |
| 20260831004548 | 52 | 261 | 10.0 | 20.0 | 0.01 | 0.09 | 0.03 | 1 | 1011.6 |
| 20260831004015 | 52 | 259 | 15.0 | 23.0 | 0.01 | 0.09 | 0.03 | 1 | 1011.7 |
| 20260831003516 | 52 | 260 | 15.0 | 23.0 | 0.00 | 0.08 | 0.02 | 1 | 1011.9 |
| 20260831003051 | 53 | 254 | 12.0 | 16.0 | 0.01 | 0.08 | 0.02 | 1 | 1011.8 |
| 20260831002520 | 53 | 277 | 9.0 | 13.0 | 0.01 | 0.08 | 0.02 | 1 | 1011.8 |
| 20260831002022 | 53 | 302 | 8.0 | 14.0 | 0.01 | 0.08 | 0.02 | 1 | 1011.6 |
| 20260831001549 | 53 | 300 | 9.0 | 14.0 | 0.01 | 0.08 | 0.02 | 1 | 1011.6 |
| 20260831001019 | 53 | 286 | 9.0 | 16.0 | 0.01 | 0.08 | 0.02 | 1 | 1011.6 |
| 20260831000517 | 53 | 274 | 12.0 | 23.0 | 0.01 | 0.08 | 0.02 | 1 | 1011.8 |
| 20260831000056 | 53 | 275 | 12.0 | 24.0 | 0.01 | 0.08 | 0.02 | 1 | 1011.8 |
| 20260830235517 | 54 | 267 | 17.0 | 26.0 | 0.01 | 0.08 | 0.02 | 1 | 1011.7 |
| 20260830235021 | 53 | 263 | 19.0 | 26.0 | 0.01 | 0.08 | 0.02 | 1 | 1011.7 |
| 20260830234546 | 52 | 256 | 16.0 | 22.0 | 0.01 | 0.08 | 0.02 | 1 | 1011.7 |
| 20260830234016 | 52 | 258 | 14.0 | 29.0 | 0.01 | 0.08 | 0.02 | 1 | 1011.8 |
| 20260830233520 | 52 | 250 | 19.0 | 39.0 | 0.00 | 0.07 | 0.01 | 1 | 1011.8 |
| 20260830233049 | 54 | 251 | 30.0 | 41.0 | 0.00 | 0.07 | 0.01 | 1 | 1011.8 |
| 20260830232515 | 55 | 241 | 30.0 | 39.0 | 0.00 | 0.07 | 0.01 | 1 | 1011.3 |
| 20260830232020 | 56 | 235 | 26.0 | 37.0 | 0.00 | 0.07 | 0.01 | 1 | 1011.9 |
| 20260830231549 | 57 | 244 | 26.0 | 37.0 | 0.00 | 0.07 | 0.01 | 1 | 1011.7 |
| 20260830231017 | 59 | 252 | 22.0 | 38.0 | 0.00 | 0.07 | 0.01 | 1 | 1011.4 |
| 20260830230518 | 60 | 247 | 29.0 | 36.0 | 0.00 | 0.07 | 0.01 | 1 | 1011.1 |
| 20260830230045 | 60 | 236 | 29.0 | 35.0 | 0.00 | 0.07 | 0.01 | 1 | 1011.0 |
| 20260830225516 | 60 | 234 | 27.0 | 36.0 | 0.00 | 0.07 | 0.01 | 1 | 1010.9 |
| 20260830225016 | 62 | 223 | 23.0 | 34.0 | 0.00 | 0.07 | 0.01 | 1 | 1011.2 |
| 20260830224546 | 62 | 238 | 28.0 | 34.0 | 0.00 | 0.07 | 0.01 | 1 | 1010.8 |
| 20260830224016 | 62 | 240 | 24.0 | 32.0 | 0.00 | 0.07 | 0.01 | 1 | 1011.1 |
| 20260830223518 | 61 | 254 | 24.0 | 31.0 | 0.00 | 0.07 | 0.01 | 1 | 1010.9 |
| 20260830223053 | 60 | 222 | 21.0 | 29.0 | 0.00 | 0.07 | 0.01 | 1 | 1011.2 |